Weather reports worldwide

Advertisment
Ile Rousse, France (7753): temperature & dewpoint: 16.03.2019 18:00:00 - 22.03.2019 18:00:00 (CET)Ile Rousse, France (7753): wind speed & gusts: 16.03.2019 18:00:00 - 22.03.2019 18:00:00 (CET)Ile Rousse, France (7753): wind direction: 16.03.2019 18:00:00 - 22.03.2019 18:00:00 (CET)Ile Rousse, France (7753): reduced air pressure: 16.03.2019 18:00:00 - 22.03.2019 18:00:00 (CET)Ile Rousse, France (7753): visibility: 16.03.2019 18:00:00 - 22.03.2019 18:00:00 (CET)Ile Rousse, France (7753): precipitation: 16.03.2019 18:00:00 - 22.03.2019 18:00:00 (CET)
Date & Time tt [°C] td [°C] ff [km/h] ff [kn] fx [km/h] fx [kn] dd ppp [hPa] vv [km] rr [mm]
22.03.2019 18:00:00 14,2 6,0 15 8 27 14 E 1024,0 - 0,0
22.03.2019 17:00:00 14,6 7,6 13 7 26 14 E 1024,6 - 0,0
22.03.2019 16:00:00 15,5 7,8 16 9 34 18 ENE 1024,8 20 0,0
22.03.2019 15:00:00 15,8 7,5 16 9 28 15 ENE 1025,2 - 0,0
22.03.2019 14:00:00 14,8 7,6 17 9 29 15 ENE 1025,7 - 0,0
22.03.2019 13:00:00 14,9 7,4 16 8 30 16 NE 1026,0 - 0,0
22.03.2019 12:00:00 15,8 7,8 19 11 39 21 ENE 1026,0 - 0,0
22.03.2019 11:00:00 14,9 7,9 26 14 39 21 NE 1026,0 - 0,0
22.03.2019 10:00:00 15,0 7,5 21 11 35 19 ENE 1026,1 20 0,0
22.03.2019 09:00:00 12,8 5,5 23 12 33 18 ENE 1025,8 - 0,0
22.03.2019 08:00:00 10,9 2,2 22 12 35 19 E 1025,6 - 0,0
22.03.2019 07:00:00 9,6 2,2 27 15 32 18 ENE 1025,5 22 0,0
22.03.2019 06:00:00 10,4 1,0 20 11 31 17 E 1025,2 - 0,0
22.03.2019 05:00:00 10,2 2,5 20 11 25 13 E 1025,2 - 0,0
22.03.2019 04:00:00 11,2 2,7 20 11 29 16 ENE 1025,2 - 0,0
22.03.2019 03:00:00 11,3 4,5 13 7 25 13 E 1025,5 - 0,0
22.03.2019 02:00:00 11,6 2,3 18 10 26 14 E 1025,8 - 0,0
22.03.2019 01:00:00 11,5 4,2 22 12 36 19 E 1025,9 - 0,0
22.03.2019 00:00:00 11,5 5,1 23 12 37 20 ENE 1026,0 - 0,0
21.03.2019 23:00:00 11,3 5,6 26 14 36 19 E 1026,1 - 0,0
21.03.2019 22:00:00 11,9 8,6 24 13 40 22 ENE 1026,2 - 0,0
21.03.2019 21:00:00 12,1 8,8 30 16 46 25 NE 1025,9 - 0,0
21.03.2019 20:00:00 12,8 7,7 38 21 62 34 NE 1025,4 - 0,0
21.03.2019 19:00:00 12,9 7,3 41 22 60 33 NE 1024,5 - 0,0
21.03.2019 18:00:00 13,6 5,5 45 24 64 35 NE 1024,0 - 0,0
21.03.2019 17:00:00 13,4 5,8 49 27 74 40 NE 1023,7 - 0,0
21.03.2019 16:00:00 12,9 5,8 56 31 75 40 NE 1023,7 - 0,0
21.03.2019 15:00:00 12,8 4,5 49 26 80 43 NNE 1024,5 - 0,0
21.03.2019 14:00:00 12,6 4,0 61 33 77 42 NE 1024,6 - 0,0
21.03.2019 13:00:00 12,5 4,0 57 31 82 44 NE 1025,3 30 0,0
21.03.2019 12:00:00 12,0 3,7 51 28 68 37 NNE 1026,2 - 0,0
21.03.2019 11:00:00 12,5 1,8 46 25 59 32 NE 1026,3 - 0,0
21.03.2019 10:00:00 11,9 1,8 41 22 53 29 NE 1026,1 - 0,0
21.03.2019 09:00:00 11,4 1,1 37 20 52 28 ENE 1026,3 - 0,0
21.03.2019 08:00:00 10,5 -0,6 42 23 55 30 E 1026,0 - 0,0
21.03.2019 07:00:00 9,0 -0,6 35 19 49 27 E 1025,5 30 0,0
21.03.2019 06:00:00 9,1 -2,5 32 18 46 25 E 1025,4 - 0,0
21.03.2019 05:00:00 8,7 -3,2 35 19 52 28 E 1025,3 - 0,0
21.03.2019 04:00:00 8,3 -2,4 30 16 48 26 E 1025,5 - 0,0
21.03.2019 03:00:00 8,7 -2,6 33 18 52 28 E 1025,5 - 0,0
21.03.2019 02:00:00 8,8 -1,9 38 20 54 29 E 1026,2 - 0,0
21.03.2019 01:00:00 9,9 -3,8 26 14 48 26 E 1026,5 - 0,0
21.03.2019 00:00:00 9,8 -3,2 27 14 45 24 E 1026,5 - 0,0
20.03.2019 23:00:00 10,3 -1,1 34 18 51 28 E 1026,7 - 0,0
20.03.2019 22:00:00 10,4 -0,4 31 17 48 26 E 1026,4 - 0,0
20.03.2019 21:00:00 10,8 -0,4 29 15 41 22 E 1026,3 - 0,0
20.03.2019 20:00:00 10,7 -0,2 26 14 37 20 E 1026,0 - 0,0
20.03.2019 19:00:00 11,4 0,5 29 16 56 30 E 1025,7 22 0,0
20.03.2019 18:00:00 12,7 2,0 42 23 68 37 ENE 1024,9 - 0,0
20.03.2019 17:00:00 12,1 3,8 51 27 69 38 NE 1024,2 - 0,0
20.03.2019 16:00:00 12,3 3,2 55 30 72 39 NE 1023,9 25 0,0
20.03.2019 15:00:00 13,2 1,5 53 28 66 36 NE 1023,8 - 0,0
20.03.2019 14:00:00 12,9 1,8 50 27 65 35 NE 1024,6 - 0,0
20.03.2019 13:00:00 12,6 1,6 43 23 63 34 ENE 1025,2 25 0,0
20.03.2019 12:00:00 12,8 2,6 52 28 69 37 NE 1025,0 - 0,0
20.03.2019 11:00:00 10,7 2,0 49 26 64 35 NE 1024,9 - 0,0
20.03.2019 10:00:00 11,8 1,1 37 20 52 28 E 1025,0 25 0,0
20.03.2019 09:00:00 10,8 1,9 33 18 50 27 ENE 1024,8 - 0,0
20.03.2019 08:00:00 9,8 0,7 38 21 59 32 E 1024,3 - 0,0
20.03.2019 07:00:00 8,6 0,1 37 20 51 28 E 1024,3 20 0,0
20.03.2019 06:00:00 8,5 -1,1 37 20 55 30 E 1023,3 - 0,0
20.03.2019 05:00:00 9,0 -2,3 32 18 55 30 E 1023,1 - 0,0
20.03.2019 04:00:00 9,2 -3,4 31 17 45 25 E 1022,9 - 0,0
20.03.2019 03:00:00 9,2 -3,1 30 16 47 26 E 1023,0 - 0,0
20.03.2019 02:00:00 9,4 -2,9 33 18 48 26 E 1023,4 - 0,0
20.03.2019 01:00:00 9,5 -1,3 33 18 49 26 E 1023,1 - 0,0
20.03.2019 00:00:00 9,5 0,9 26 14 40 21 ESE 1023,2 - 0,0
19.03.2019 23:00:00 9,5 1,1 25 14 36 20 E 1023,0 - 0,0
19.03.2019 22:00:00 10,2 0,8 30 16 41 22 E 1022,4 - 0,0
19.03.2019 21:00:00 9,9 1,3 28 15 34 18 E 1022,2 - 0,0
19.03.2019 20:00:00 9,9 1,3 23 12 32 17 E 1021,8 - 0,0
19.03.2019 19:00:00 10,3 1,6 26 14 48 26 E 1021,4 30 0,0
19.03.2019 18:00:00 11,5 2,2 36 19 52 28 NE 1020,5 - 0,0
19.03.2019 17:00:00 12,0 2,7 40 22 57 31 NE 1019,7 - 0,0
19.03.2019 16:00:00 11,9 2,6 42 23 57 31 NE 1019,1 - 0,0
19.03.2019 15:00:00 13,0 0,7 41 22 56 30 NE 1018,9 - 0,0
19.03.2019 14:00:00 12,2 1,2 41 22 55 30 NE 1018,9 - 0,0
19.03.2019 13:00:00 13,3 1,3 40 22 53 29 NE 1019,1 30 0,0
19.03.2019 12:00:00 12,9 3,3 34 18 46 25 NE 1019,2 - 0,0
19.03.2019 11:00:00 12,3 2,7 34 18 48 26 ENE 1018,9 - 0,0
19.03.2019 10:00:00 12,5 2,6 29 16 40 22 E 1018,6 30 0,0
19.03.2019 09:00:00 11,5 3,3 18 10 24 13 E 1018,3 - 0,0
19.03.2019 08:00:00 11,3 2,6 17 9 24 13 E 1018,0 - 0,0
19.03.2019 07:00:00 9,9 2,0 19 10 29 15 E 1017,5 20 0,0
19.03.2019 06:00:00 9,4 2,0 16 9 24 13 E 1017,2 - 0,0
19.03.2019 05:00:00 10,3 2,9 16 8 21 11 ENE 1016,7 - 0,0
19.03.2019 04:00:00 11,2 3,5 6 3 12 6 NE 1016,2 - 0,0
19.03.2019 03:00:00 11,2 3,0 5 3 15 8 WSW 1016,0 - 0,0
19.03.2019 02:00:00 11,0 2,8 12 6 21 11 WSW 1016,2 - 0,0
19.03.2019 01:00:00 11,1 3,1 11 6 24 13 WSW 1016,5 - 0,0
19.03.2019 00:00:00 11,0 4,2 13 7 25 14 SW 1016,7 - 0,0
18.03.2019 23:00:00 11,0 3,8 16 9 24 13 SW 1016,9 - 0,0
18.03.2019 22:00:00 10,9 1,1 17 9 30 16 SW 1016,5 - 0,0
18.03.2019 21:00:00 10,5 1,6 21 11 38 20 SW 1015,9 - 0,0
18.03.2019 20:00:00 10,1 3,8 28 15 43 23 WSW 1015,2 - 0,0
18.03.2019 19:00:00 10,2 4,6 22 12 36 19 WSW 1015,1 20 0,0
18.03.2019 18:00:00 11,6 4,1 19 10 29 16 WSW 1014,5 - 0,0
18.03.2019 17:00:00 13,8 3,8 15 8 25 14 WSW 1013,8 - 0,0
18.03.2019 16:00:00 14,9 4,6 15 8 31 17 WSW 1013,5 20 0,0
18.03.2019 15:00:00 14,6 4,3 18 10 35 19 W 1013,4 - 0,0
18.03.2019 14:00:00 14,0 4,6 24 13 39 21 W 1013,5 - 0,0
18.03.2019 13:00:00 14,3 3,4 19 11 50 27 WSW 1013,6 20 0,0
18.03.2019 12:00:00 14,0 3,7 27 15 55 30 WSW 1013,5 - 0,0
18.03.2019 11:00:00 12,8 2,9 34 18 67 36 WSW 1013,2 - 0,0
18.03.2019 10:00:00 11,8 2,5 39 21 64 35 WSW 1013,3 20 0,0
18.03.2019 09:00:00 11,2 2,2 37 20 69 38 WSW 1013,0 - 0,0
18.03.2019 08:00:00 10,5 2,8 46 25 77 42 SW 1012,4 - 0,0
18.03.2019 07:00:00 10,5 2,6 51 28 89 48 WSW 1011,7 28 0,0
18.03.2019 06:00:00 10,7 3,5 47 26 92 50 WSW 1011,0 - 0,0
18.03.2019 05:00:00 11,5 5,1 51 27 94 51 WSW 1010,1 - 0,0
18.03.2019 04:00:00 12,4 6,9 41 22 76 41 WSW 1010,0 20 0,0
18.03.2019 03:00:00 13,1 6,9 32 17 61 33 WSW 1010,6 - 0,0
18.03.2019 02:00:00 13,7 6,5 27 15 63 34 SW 1011,4 - 0,0
18.03.2019 01:00:00 14,5 6,1 41 22 65 35 SSW 1011,7 - 0,0
18.03.2019 00:00:00 12,4 5,8 35 19 60 33 SW 1012,2 - 0,0
17.03.2019 23:00:00 11,7 8,0 8 4 12 6 SE 1012,6 - 0,0
17.03.2019 22:00:00 11,6 8,3 8 4 16 9 SE 1012,9 - 0,0
17.03.2019 21:00:00 11,3 9,6 14 7 18 10 E 1012,7 - 0,0
17.03.2019 20:00:00 11,8 9,7 10 5 11 6 ENE 1012,8 - 0,0
17.03.2019 19:00:00 11,9 9,3 9 5 17 9 ESE 1012,8 15 0,0
17.03.2019 18:00:00 13,0 9,3 13 7 19 10 E 1013,1 - 0,0
17.03.2019 17:00:00 13,7 9,5 14 7 18 10 ENE 1013,4 - 0,0
17.03.2019 16:00:00 12,8 9,4 10 5 18 10 NNE 1013,8 20 0,0
17.03.2019 15:00:00 12,9 9,5 10 5 19 10 NNE 1014,7 - 0,0
17.03.2019 14:00:00 12,9 9,5 7 4 16 9 NW 1015,5 - 0,0
17.03.2019 13:00:00 13,0 9,6 9 5 22 12 NNW 1016,3 - 0,0
17.03.2019 12:00:00 13,5 9,9 11 6 19 10 NNW 1016,5 - 0,0
17.03.2019 11:00:00 12,6 8,7 6 4 18 10 N 1016,7 - 0,0
17.03.2019 10:00:00 11,9 10,1 12 6 18 10 W 1016,9 20 0,0
17.03.2019 09:00:00 11,1 9,8 8 4 18 10 W 1016,6 - 0,0
17.03.2019 08:00:00 10,3 9,1 11 6 14 8 WSW 1016,7 - 0,0
17.03.2019 07:00:00 10,3 9,1 7 4 9 5 WSW 1016,5 20 0,0
17.03.2019 06:00:00 10,8 9,2 3 2 6 4 SW 1016,6 - 0,0
17.03.2019 05:00:00 11,0 9,4 5 3 11 6 E 1016,8 - 0,0
17.03.2019 04:00:00 11,1 9,4 2 1 9 5 E 1017,0 20 0,0
17.03.2019 03:00:00 11,4 9,5 8 4 13 7 E 1017,1 - 0,0
17.03.2019 02:00:00 11,9 9,6 9 5 10 6 ESE 1017,5 - 0,0
17.03.2019 01:00:00 12,1 9,5 0 0 7 4 N 1018,1 - 0,0
17.03.2019 00:00:00 12,1 9,7 6 3 8 5 WSW 1018,4 - 0,0
16.03.2019 23:00:00 12,7 10,2 5 3 13 7 NE 1018,3 - 0,0
16.03.2019 22:00:00 12,8 9,4 9 5 12 6 E 1018,3 - 0,0
16.03.2019 21:00:00 12,9 9,2 5 3 10 5 E 1018,1 - 0,0
16.03.2019 20:00:00 12,7 8,8 5 3 12 6 WSW 1017,8 - 0,0
16.03.2019 19:00:00 12,9 9,2 8 4 29 16 WSW 1017,6 20 0,0
16.03.2019 18:00:00 13,5 9,9 21 11 33 18 WSW 1017,2 - 0,0

tt = temperature
td = dewpoint
ff = wind speed
fx = gusts
dd = wind direction
ppp = reduced air pressure
vv = visibility
rr = precipitation

Next stations